{"data":{"norad_id":48563,"intl_designator":"2021-041L","name":"STARLINK-2188","alt_names":[],"object_type":"PAYLOAD","status":"ACTIVE","operator":null,"country":"US","launch_date":"2021-05-15","launch_site_code":"AFETR","launch_vehicle":null,"mission":null,"orbit_class":"UNKNOWN","rcs_meters":null,"size_class":null,"mass_kg":null,"dimensions":null,"purposes":["comms"],"wikipedia_slug":null,"has_3d_model":false,"image_url":null,"decayed_at":null,"tle_current":{"epoch":"2026-09-19T19:42:21.273984Z","epoch_age_seconds":95939,"freshness":"FRESH","line1":"1 48563U 21041L   26262.82107956  .00000901  00000+0  40796-4 0  9999","line2":"2 48563  53.1617 303.2807 0001317  90.0227 270.0925 15.31704816295025","mean_motion":15.31704816,"eccentricity":0.0001317,"inclination_deg":53.1617,"raan_deg":303.2807,"arg_perigee_deg":90.0227,"mean_anomaly_deg":270.0925,"bstar":4.0796e-5,"rev_number":29502,"period_min":94.012892363981,"perigee_km":469.82364380831,"apogee_km":471.62763422743,"semimajor_km":6848.8626390179,"source":"CELESTRAK","updated_at":"2026-09-20T09:00:39.133718Z"}}}